Regional Weather Roundup
Issued by NWS

Home | Current Version | Previous Version | Graphics & Text | Print | Product List | Glossary Off
Versions: 1 2 3 4 5 6 7 8 9 10 11 12 13 14 15 16 17 18 19 20 21 22 23 24 25 26 27 28 29 30 31 32 33 34 35 36 37 38 39 40 41 42 43 44 45 46 47 48 49 50

722
ASUS43 KTOP 081759
RWRKS

WEATHER ROUNDUP FOR KANSAS
NATIONAL WEATHER SERVICE GOODLAND KS
1200 PM CST MON FEB 08 2016

NOTE:  "FAIR" INDICATES FEW OR NO CLOUDS BELOW 12,000 FEET WITH NO
SIGNIFICANT WEATHER AND/OR OBSTRUCTIONS TO VISIBILITY.

KSZ001>006-013>018-027>032-041>047-081900-
NORTHWEST KANSAS

CITY           SKY/WX    TMP DP  RH WIND       PRES   REMARKS
GOODLAND       MOSUNNY   34  15  46 N23G32    30.37F WCI  22
6HR MIN TEMP:  20; 6HR MAX TEMP:  34;

HAYS           SUNNY     37  12  35 NW31G41   30.33R WCI  25
HILL CITY      SUNNY     35  17  47 NW26G41   30.34F WCI  22
6HR MIN TEMP:  28; 6HR MAX TEMP:  35;

RUSSELL        SUNNY     37  17  44 NW33G45   30.29S WCI  24
6HR MIN TEMP:  29; 6HR MAX TEMP:  37;

$$

KSZ061>065-074>080-084>089-081900-
SOUTHWEST KANSAS

CITY           SKY/WX    TMP DP  RH WIND       PRES   REMARKS
DODGE CITY     SUNNY     41   4  21 N33G43    30.38R
6HR MIN TEMP:  25; 6HR MAX TEMP:  41;

ELKHART          N/A     44  13  28 NW20        N/A
GARDEN CITY    SUNNY     40   6  24 N25G37    30.40S WCI  29
6HR MIN TEMP:  24; 6HR MAX TEMP:  40;

GREAT BEND     SUNNY     39  14  35 N28G43    30.32S WCI  28
LIBERAL        SUNNY     45  10  24 NW26G32   30.43S
$$

KSZ066>073-081>083-090>101-081900-
SOUTHEAST KANSAS

CITY           SKY/WX    TMP DP  RH WIND       PRES   REMARKS
CHANUTE        CLOUDY    36  21  54 NW23G33   30.15R WCI  24
6HR MIN TEMP:  34; 6HR MAX TEMP:  38;

COFFEYVILLE    MOSUNNY   43  16  33 N29G39    30.16F
6HR MIN TEMP:  33; 6HR MAX TEMP:  43;

HUTCHINSON     SUNNY     41  13  31 N33G45    30.26R
6HR MIN TEMP:  31; 6HR MAX TEMP:  42;

MEDICINE LODGE   N/A     43   9  24 NW33G45   30.30F
NEWTON         SUNNY     37  12  35 N33G49    30.22S WCI  24
PARSONS        PTSUNNY   41  17  38 NW22G35   30.16
6HR MIN TEMP:  33; 6HR MAX TEMP:  43;

WICHITA INTL   MOSUNNY   42  12  29 NW36G46   30.25S
6HR MIN TEMP:  32; 6HR MAX TEMP:  42;

WICHITA JABRA  SUNNY     41  15  35 NW36G45   30.22S
6HR MIN TEMP:  32; 6HR MAX TEMP:  41;

WICHITA MCCONL SUNNY     40  13  32 NW32G45   30.22S WCI  29
WINFIELD       SUNNY     43  14  31 NW32G43   30.25S
6HR MIN TEMP:  32; 6HR MAX TEMP:  43;

$$

KSZ007>012-019>026-033>040-048>060-102>105-081900-
NORTHEAST KANSAS

CITY           SKY/WX    TMP DP  RH WIND       PRES   REMARKS
CONCORDIA      MOSUNNY   35  17  47 NW24G40   30.22F WCI  23
6HR MIN TEMP:  29; 6HR MAX TEMP:  36;

EMPORIA        PTSUNNY   37  17  44 NW30G43   30.15S WCI  24
6HR MIN TEMP:  33; 6HR MAX TEMP:  37;

LAWRENCE       CLOUDY    34  15  46 NW33G45   30.11S WCI  20
6HR MIN TEMP:  30; 6HR MAX TEMP:  35; 6HR PCP: TRACE;

MANHATTAN      MOSUNNY   36  17  46 NW18G31   30.20S WCI  26
6HR MIN TEMP:  33; 6HR MAX TEMP:  37;

OLATHE IND     MIX PCPN  32  18  56 NW25G32   30.08S WCI  19
6HR MIN TEMP:  31; 6HR MAX TEMP:  34; 6HR PCP: TRACE;

OLATHE EXE     CLOUDY    31  15  52 NW18G35   30.07S WCI  19
6HR MIN TEMP:  30; 6HR MAX TEMP:  32; 6HR PCP: TRACE;

SALINA         SUNNY     40  14  34 N36G46    30.24F WCI  27
6HR MIN TEMP:  31; 6HR MAX TEMP:  41;

TOPEKA BILLARD CLOUDY    34  16  47 NW23G36   30.14S WCI  22
6HR MIN TEMP:  31; 6HR MAX TEMP:  36; 6HR PCP: TRACE;

TOPEKA FORBES  CLOUDY    36  17  46 NW32G41   30.12S WCI  23
6HR MIN TEMP:  32; 6HR MAX TEMP:  37; 6HR PCP: TRACE;

$$




USA.gov is the U.S. government's official web portal to all federal, state and local government web resources and services.